| time (UTC) | temp F | wind direction | speed knots | gust knots | rain 1hr in | rain 24hr in | rain mn in | humidity % | barometer mb |
| 20260505101517 | 48 | 355 | 0.0 | 0.0 | 0.00 | 0.01 | 0.01 | 85 | 1021.8 |
| 20260505100014 | 49 | 355 | 0.0 | 0.0 | 0.00 | 0.01 | 0.01 | 84 | 1021.8 |
| 20260505094507 | 49 | 355 | 0.0 | 0.0 | 0.00 | 0.01 | 0.01 | 83 | 1021.6 |
| 20260505093004 | 50 | 355 | 0.0 | 0.0 | 0.00 | 0.01 | 0.01 | 83 | 1021.4 |
| 20260505091621 | 50 | 351 | 0.0 | 0.0 | 0.00 | 0.01 | 0.01 | 82 | 1021.4 |
| 20260505090121 | 51 | 351 | 0.0 | 0.0 | 0.00 | 0.01 | 0.01 | 81 | 1021.2 |
| 20260505084529 | 52 | 351 | 0.0 | 0.0 | 0.00 | 0.01 | 0.01 | 79 | 1021.0 |
| 20260505083025 | 53 | 351 | 0.0 | 1.7 | 0.00 | 0.01 | 0.01 | 77 | 1020.8 |
| 20260505081512 | 53 | 351 | 0.0 | 3.5 | 0.00 | 0.01 | 0.01 | 76 | 1020.7 |
| 20260505080016 | 54 | 346 | 0.0 | 1.7 | 0.00 | 0.01 | 0.01 | 75 | 1020.4 |
| 20260505074506 | 54 | 344 | 0.0 | 4.3 | 0.00 | 0.01 | 0.01 | 73 | 1020.3 |
| 20260505073010 | 55 | 36 | 0.0 | 5.2 | 0.00 | 0.01 | 0.01 | 72 | 1020.0 |
| 20260505071503 | 56 | 13 | 0.0 | 5.2 | 0.00 | 0.01 | 0.01 | 70 | 1019.7 |
| 20260505070001 | 57 | 9 | 2.6 | 7.8 | 0.00 | 0.01 | 0.01 | 68 | 1019.5 |
| 20260505064610 | 58 | 338 | 1.7 | 8.7 | 0.00 | 0.01 | 0.01 | 67 | 1019.3 |
| 20260505063102 | 59 | 355 | 0.9 | 7.0 | 0.00 | 0.01 | 0.01 | 66 | 1019.2 |
| 20260505061609 | 59 | 35 | 2.6 | 9.6 | 0.00 | 0.01 | 0.01 | 65 | 1019.0 |
| 20260505060104 | 60 | 5 | 2.6 | 10.4 | 0.00 | 0.05 | 0.01 | 65 | 1018.9 |
| 20260505054606 | 60 | 266 | 2.6 | 9.6 | 0.00 | 0.05 | 0.01 | 65 | 1018.7 |
| 20260505053059 | 60 | 22 | 2.6 | 13.0 | 0.00 | 0.05 | 0.01 | 63 | 1018.5 |
| 20260505051557 | 60 | 9 | 3.5 | 11.3 | 0.00 | 0.05 | 0.01 | 63 | 1018.5 |
| 20260505041600 | 61 | 283 | 7.0 | 14.8 | 0.00 | 0.05 | 0.01 | 62 | 1018.1 |
| 20260505040053 | 61 | 355 | 2.6 | 10.4 | 0.00 | 0.06 | 0.01 | 62 | 1018.0 |
| 20260505034547 | 60 | 301 | 3.5 | 10.4 | 0.00 | 0.06 | 0.01 | 63 | 1018.1 |
| 20260505033048 | 59 | 296 | 4.3 | 13.9 | 0.00 | 0.06 | 0.01 | 64 | 1018.2 |
| 20260505031546 | 60 | 279 | 5.2 | 13.0 | 0.00 | 0.06 | 0.01 | 64 | 1018.4 |
| 20260505030059 | 60 | 292 | 2.6 | 11.3 | 0.00 | 0.06 | 0.01 | 63 | 1018.6 |
| 20260505024547 | 60 | 315 | 3.5 | 12.2 | 0.00 | 0.06 | 0.01 | 62 | 1018.5 |
| 20260505023041 | 60 | 315 | 6.1 | 10.4 | 0.00 | 0.06 | 0.01 | 62 | 1018.8 |
| 20260505021539 | 59 | 274 | 5.2 | 13.0 | 0.00 | 0.06 | 0.01 | 64 | 1018.9 |
| 20260505020041 | 59 | 310 | 0.0 | 12.2 | 0.00 | 0.07 | 0.01 | 65 | 1019.2 |
| 20260505014559 | 59 | 331 | 4.3 | 10.4 | 0.00 | 0.07 | 0.01 | 65 | 1019.4 |
| 20260505013044 | 58 | 355 | 2.6 | 7.8 | 0.00 | 0.07 | 0.01 | 64 | 1019.7 |
| 20260505011539 | 58 | 326 | 2.6 | 11.3 | 0.00 | 0.07 | 0.01 | 67 | 1019.7 |
| 20260505010029 | 57 | 331 | 1.7 | 11.3 | 0.00 | 0.09 | 0.01 | 69 | 1019.8 |
| 20260505004539 | 57 | 280 | 4.3 | 10.4 | 0.00 | 0.09 | 0.01 | 69 | 1019.7 |
| 20260505003048 | 57 | 321 | 0.0 | 9.6 | 0.00 | 0.09 | 0.01 | 69 | 1019.8 |
| 20260505001522 | 57 | 329 | 1.7 | 7.0 | 0.00 | 0.09 | 0.01 | 72 | 1019.5 |
| 20260505000017 | 56 | 265 | 0.0 | 11.3 | 0.00 | 0.09 | 0.01 | 74 | 1019.4 |
| 20260504234515 | 56 | 298 | 3.5 | 12.2 | 0.00 | 0.09 | 0.01 | 74 | 1019.2 |
| 20260504233016 | 55 | 17 | 2.6 | 8.7 | 0.00 | 0.09 | 0.01 | 73 | 1019.2 |
| 20260504231510 | 55 | 283 | 1.7 | 8.7 | 0.00 | 0.09 | 0.01 | 75 | 1019.2 |
| 20260504230107 | 54 | 329 | 2.6 | 7.8 | 0.00 | 0.14 | 0.01 | 77 | 1018.9 |
| 20260504224508 | 53 | 11 | 2.6 | 10.4 | 0.00 | 0.14 | 0.01 | 79 | 1018.8 |
| 20260504223115 | 52 | 277 | 2.6 | 9.6 | 0.00 | 0.14 | 0.01 | 83 | 1018.8 |
| 20260504221553 | 51 | 325 | 1.7 | 7.0 | 0.00 | 0.14 | 0.01 | 87 | 1019.0 |
| 20260504220049 | 49 | 11 | 0.0 | 4.3 | 0.00 | 0.14 | 0.01 | 91 | 1018.9 |
| 20260504214546 | 47 | 346 | 0.0 | 3.5 | 0.00 | 0.14 | 0.01 | 94 | 1018.6 |
| 20260504213046 | 45 | 346 | 0.0 | 0.0 | 0.00 | 0.14 | 0.01 | 95 | 1018.5 |
| 20260504211615 | 0 | 0.0 | 0.0 | 0.00 | 0.14 | 0.01 | 1018.4 | ||
| 20260504210044 | 0 | 0.0 | 0.0 | 0.00 | 0.14 | 0.01 | 1018.1 | ||
| 20260504204534 | 0 | 0.0 | 0.0 | 0.00 | 0.14 | 0.01 | 1017.9 | ||
| 20260504203029 | 0 | 0.0 | 0.0 | 0.00 | 0.14 | 0.01 | 1017.7 | ||
| 20260504201525 | 0 | 0.0 | 0.0 | 0.00 | 0.14 | 0.01 | 1017.5 | ||
| 20260504200022 | 0 | 0.0 | 0.0 | 0.00 | 0.14 | 0.01 | 1017.4 | ||
| 20260504194515 | 0 | 0.0 | 0.0 | 0.00 | 0.14 | 0.01 | 1017.2 | ||
| 20260504193011 | 0 | 0.0 | 0.0 | 0.00 | 0.14 | 0.01 | 1017.0 | ||
| 20260504191507 | 48 | 346 | 0.9 | 5.2 | 0.00 | 0.14 | 0.01 | 88 | 1016.8 |
| 20260504190005 | 48 | 312 | 0.0 | 1.7 | 0.00 | 0.16 | 0.01 | 88 | 1016.6 |
| 20260504184503 | 49 | 331 | 0.9 | 7.0 | 0.00 | 0.16 | 0.01 | 88 | 1016.2 |
| 20260504183008 | 49 | 334 | 0.9 | 7.8 | 0.00 | 0.16 | 0.01 | 88 | 1016.1 |
| 20260504181502 | 49 | 330 | 1.7 | 8.7 | 0.00 | 0.16 | 0.01 | 88 | 1016.1 |
| 20260504180101 | 49 | 302 | 2.6 | 9.6 | 0.00 | 0.18 | 0.01 | 89 | 1016.0 |
| 20260504174556 | 49 | 290 | 0.9 | 6.1 | 0.00 | 0.18 | 0.01 | 90 | 1016.1 |
| 20260504173056 | 48 | 301 | 0.0 | 7.0 | 0.00 | 0.18 | 0.01 | 91 | 1016.1 |
| 20260504171552 | 48 | 334 | 0.9 | 3.5 | 0.00 | 0.18 | 0.01 | 92 | 1015.9 |
| 20260504170121 | 48 | 334 | 0.0 | 0.0 | 0.00 | 0.19 | 0.01 | 92 | 1016.0 |